Retour au catalogue

STARLINK-38040

ActifCommunicationsSSO
NORAD 69717·PAYLOAD·🇺🇸 United States

Lancé Jun 28, 2026 depuis Vandenberg Space Force Base

Loading…

Prochains Passages (prochaines 24 heures)

TLE

FraisSource: CelesTrak SupGP

Époque: Sep 14, 2026, 16:23 UTC

1 69717C 26147P   26257.68312500 -.00041122  00000+0 -12767-2 0  2570
2 69717  97.2834 294.1354 0001292  96.1237 237.5648 15.33457074    10

Suivez STARLINK-38040 en temps réel avec AllMySat

Download on the App Store